EW4538 Weather Reports


time (UTC)temp
F
wind
direction
speed
knots
gust
knots
rain 1hr
in
rain 24hr
in
rain mn
in
humidity
%
barometer
mb
20260504204305 81 174 8.7 17.4 0.00 0.00 0.00 53 1010.5
20260504203805 81 167 10.4 14.8 0.00 0.00 0.00 52 1010.5
20260504201805 81 176 10.4 21.7 0.00 0.00 0.00 53 1010.9
20260504201305 81 175 7.8 15.6 0.00 0.00 0.00 53 1011.0
20260504200805 81 173 9.6 18.2 0.00 0.00 0.00 52 1011.2
20260504200305 81 170 10.4 20.0 0.00 0.00 0.00 54 1011.2
20260504194805 80 162 10.4 20.9 0.00 0.00 0.00 53 1011.5
20260504194305 81 175 8.7 17.4 0.00 0.00 0.00 53 1011.5
20260504193805 80 176 6.1 13.0 0.00 0.00 0.00 53 1011.6
20260504193305 80 174 10.4 20.0 0.00 0.00 0.00 54 1011.7
20260504191805 80 173 10.4 17.4 0.00 0.00 0.00 54 1011.9
20260504191305 79 173 8.7 18.2 0.00 0.00 0.00 55 1011.8
20260504190805 79 164 10.4 21.7 0.00 0.00 0.00 56 1012.1
20260504190305 79 160 12.2 21.7 0.00 0.00 0.00 56 1012.2
20260504184306 79 173 9.6 14.8 0.00 0.00 0.00 56 1012.5
20260504183305 79 173 11.3 17.4 0.00 0.00 0.00 55 1012.6
20260504181805 78 180 7.8 13.0 0.00 0.00 0.00 59 1013.0
20260504181305 77 154 10.4 17.4 0.00 0.00 0.00 58 1013.1
20260504180805 77 166 10.4 21.7 0.00 0.00 0.00 58 1013.1
20260504180305 76 178 10.4 18.2 0.00 0.00 0.00 59 1013.1
20260504174805 75 161 7.8 14.8 0.00 0.00 0.00 61 1013.1
20260504174305 76 165 11.3 15.6 0.00 0.00 0.00 61 1013.3
20260504173805 76 174 10.4 17.4 0.00 0.00 0.00 61 1013.3
20260504171805 73 178 8.7 17.4 0.00 0.00 0.00 64 1014.1
20260504171305 73 170 9.6 14.8 0.00 0.00 0.00 64 1014.1
20260504170805 73 182 7.8 15.6 0.00 0.00 0.00 65 1014.2
20260504170305 73 189 7.8 18.2 0.00 0.00 0.00 66 1014.3
20260504150304 70 178 11.3 17.4 0.00 0.00 0.00 67 1014.9
20260504141304 68 162 4.3 14.8 0.00 0.00 0.00 70 1014.8
20260504140805 59 0 0.0 0.0 0.00 0.00 0.00 79 1014.8
20260504140305 59 0 0.0 0.0 0.00 0.00 0.00 79 1014.9
20260504130305 59 0 0.0 0.0 0.00 0.00 0.00 79 1015.1
20260504120305 59 0 0.0 0.0 0.00 0.00 0.00 79 1014.6
20260504110305 59 160 5.2 8.7 0.00 0.00 0.00 78 1014.6
20260504081805 62 168 6.1 12.2 0.00 0.00 0.00 72 1015.4
20260504081305 62 161 7.0 12.2 0.00 0.00 0.00 72 1015.4
20260504080805 62 158 7.8 12.2 0.00 0.00 0.00 72 1015.5
20260504080305 62 169 7.0 12.2 0.00 0.00 0.00 71 1015.7
20260504070305 63 169 7.8 14.8 0.00 0.00 0.00 68 1016.6
20260504050305 65 167 10.4 20.9 0.00 0.00 0.00 58 1017.6
20260504044805 66 161 10.4 17.4 0.00 0.00 0.00 57 1017.5
20260504044305 66 163 10.4 17.4 0.00 0.00 0.00 56 1017.6
20260504043805 66 163 9.6 14.8 0.00 0.00 0.00 55 1017.6
20260504043305 66 164 10.4 13.9 0.00 0.00 0.00 54 1017.7
20260504041805 67 169 8.7 13.0 0.00 0.00 0.00 53 1017.7
20260504041304 67 164 8.7 13.9 0.00 0.00 0.00 52 1017.7
20260504040804 67 158 10.4 17.4 0.00 0.00 0.00 52 1017.7
20260504040305 67 165 8.7 17.4 0.00 0.00 0.00 51 1017.7
20260504034805 68 165 7.8 13.9 0.00 0.00 0.00 49 1017.7
20260504034305 67 170 7.8 12.2 0.00 0.00 0.00 49 1017.6
20260504033805 67 169 7.0 11.3 0.00 0.00 0.00 49 1017.6
20260504033304 67 158 8.7 13.0 0.00 0.00 0.00 49 1017.7
20260504031805 67 161 7.8 12.2 0.00 0.00 0.00 50 1017.7
20260504031304 67 163 6.1 8.7 0.00 0.00 0.00 50 1017.6
20260504030805 67 159 6.1 8.7 0.00 0.00 0.00 50 1017.7
20260504030305 67 158 6.1 8.7 0.00 0.00 0.00 50 1017.8
20260504024805 68 158 6.1 10.4 0.00 0.00 0.00 50 1017.7
20260504023805 68 158 6.1 8.7 0.00 0.00 0.00 49 1017.8
20260504023305 68 160 6.1 8.7 0.00 0.00 0.00 48 1017.8
20260504021804 69 161 6.1 8.7 0.00 0.00 0.00 48 1017.5
20260504021305 69 161 7.0 11.3 0.00 0.00 0.00 48 1017.6
20260504020804 69 162 7.0 8.7 0.00 0.00 0.00 48 1017.6
20260504020304 69 160 6.1 10.4 0.00 0.00 0.00 48 1017.6
20260504014305 70 161 6.1 8.7 0.00 0.00 0.00 46 1017.3
20260504013304 70 165 5.2 11.3 0.00 0.00 0.00 45 1017.1
20260504011804 71 156 6.1 11.3 0.00 0.00 0.00 43 1017.1
20260504011305 71 161 6.1 12.2 0.00 0.00 0.00 42 1017.0
20260504010805 72 159 6.1 10.4 0.00 0.00 0.00 41 1017.0
20260504010304 72 159 7.0 12.2 0.00 0.00 0.00 41 1017.0
20260504004305 73 165 7.8 12.2 0.00 0.00 0.00 39 1016.9
20260504003805 73 164 7.0 13.0 0.00 0.00 0.00 39 1017.0
20260504003305 73 162 7.0 13.9 0.00 0.00 0.00 38 1017.0
20260504001305 74 172 7.8 13.9 0.00 0.00 0.00 36 1017.2
20260504000804 74 167 6.1 13.9 0.00 0.00 0.00 37 1017.3
20260504000305 74 163 7.8 14.8 0.00 0.00 0.00 37 1017.4
20260503234805 75 182 6.1 14.8 0.00 0.00 0.00 35 1017.6
20260503234304 75 167 11.3 15.6 0.00 0.00 0.00 35 1017.6
20260503233805 75 170 7.8 13.0 0.00 0.00 0.00 36 1017.7
20260503231805 75 161 8.7 13.0 0.00 0.00 0.00 34 1017.7
20260503231304 75 177 7.8 14.8 0.00 0.00 0.00 34 1017.7
20260503230805 76 159 8.7 13.0 0.00 0.00 0.00 33 1017.6
20260503230305 76 156 8.7 18.2 0.00 0.00 0.00 34 1017.6
20260503224805 76 160 7.0 12.2 0.00 0.00 0.00 32 1017.5
20260503224305 77 153 7.8 13.9 0.00 0.00 0.00 31 1017.6
20260503223804 77 166 10.4 13.9 0.00 0.00 0.00 31 1017.7
20260503223305 77 163 7.0 18.2 0.00 0.00 0.00 30 1017.7
20260503221805 78 160 10.4 17.4 0.00 0.00 0.00 29 1018.1
20260503221305 78 166 7.0 13.0 0.00 0.00 0.00 29 1018.0
20260503220804 78 170 9.6 13.9 0.00 0.00 0.00 30 1018.2
20260503214805 78 177 9.6 13.9 0.00 0.00 0.00 29 1018.4
20260503214305 78 159 8.7 13.0 0.00 0.00 0.00 29 1018.5
20260503213804 78 178 5.2 13.0 0.00 0.00 0.00 30 1018.6
20260503213305 77 161 10.4 18.2 0.00 0.00 0.00 30 1018.7
20260503211804 78 162 10.4 15.6 0.00 0.00 0.00 28 1018.9
20260503210805 78 156 11.3 20.0 0.00 0.00 0.00 28 1019.0
20260503210305 78 168 8.7 20.0 0.00 0.00 0.00 29 1019.3